CW3777 Weather Reports


Display with metric or nautical units.
time (UTC)temp
F
wind
direction
speed
MPH
gust
MPH
rain 1hr
in
rain 24hr
in
rain mn
in
humidity
%
barometer
mb
20181018150142 56 58 4.0 17.0 0.00 0.00 0.00 51 1030.9
20181018143641 56 355 7.0 12.0 0.00 0.00 0.00 53 1030.9
20181018143142 56 359 6.0 14.0 0.00 0.00 0.00 54 1030.8
20181018140642 55 12 8.0 17.0 0.00 0.00 0.00 53 1030.9
20181018140142 55 14 5.0 18.0 0.00 0.00 0.00 56 1030.9
20181018133642 54 37 5.0 18.0 0.00 0.00 0.00 55 1030.7
20181018133142 55 73 6.0 14.0 0.00 0.00 0.00 55 1030.6
20181018130641 54 69 5.0 10.0 0.00 0.00 0.00 59 1030.2
20181018130142 54 62 7.0 15.0 0.00 0.00 0.00 60 1030.1
20181018123642 53 17 2.0 14.0 0.00 0.00 0.00 64 1029.6
20181018123142 53 32 2.0 10.0 0.00 0.00 0.00 64 1029.6
20181018120642 52 19 4.0 9.0 0.00 0.00 0.00 66 1029.2
20181018120142 52 32 3.0 12.0 0.00 0.00 0.00 66 1029.2
20181018113642 52 355 3.0 8.0 0.00 0.00 0.00 68 1028.9
20181018113141 52 12 2.0 8.0 0.00 0.00 0.00 70 1028.7
20181018110642 53 13 4.0 12.0 0.00 0.00 0.00 64 1028.6
20181018110142 53 12 3.0 16.0 0.00 0.00 0.00 65 1028.4
20181018103641 53 50 4.0 10.0 0.00 0.00 0.00 66 1028.0
20181018103142 53 5 2.0 9.0 0.00 0.00 0.00 67 1028.0
20181018100642 54 22 2.0 10.0 0.00 0.00 0.00 70 1027.2
20181018093642 54 13 3.0 5.0 0.00 0.00 0.00 71 1026.8
20181018093142 53 39 1.0 12.0 0.00 0.00 0.00 72 1026.8
20181018090641 54 5 2.0 9.0 0.00 0.01 0.00 71 1026.6
20181018090141 54 350 1.0 9.0 0.00 0.01 0.00 71 1026.6
20181018083641 54 38 2.0 6.0 0.00 0.03 0.00 70 1026.2
20181018083142 54 356 2.0 10.0 0.00 0.03 0.00 70 1026.2
20181018080642 55 348 2.0 10.0 0.00 0.04 0.00 69 1025.9
20181018080142 55 64 2.0 12.0 0.00 0.04 0.00 70 1025.8
20181018073642 55 26 1.0 3.0 0.00 0.04 0.00 70 1025.5
20181018073142 56 25 1.0 12.0 0.00 0.04 0.00 68 1025.5
20181018070642 57 36 3.0 10.0 0.00 0.04 0.00 63 1025.0
20181018070142 57 40 4.0 12.0 0.00 0.04 0.00 64 1024.9
20181018063642 57 17 3.0 10.0 0.00 0.05 0.00 68 1024.7
20181018063142 56 55 3.0 12.0 0.00 0.05 0.00 69 1024.6
20181018060644 54 29 1.0 3.0 0.00 0.05 0.00 78 1024.2
20181018060142 54 29 0.0 1.0 0.00 0.05 0.00 77 1024.2
20181018053642 56 29 0.0 2.0 0.00 0.06 0.00 74 1024.0
20181018053142 56 29 1.0 5.0 0.00 0.06 0.00 73 1023.9
20181018050642 57 28 1.0 3.0 0.00 0.06 0.00 71 1023.7
20181018050142 57 28 0.0 5.0 0.00 0.06 0.00 72 1023.6
20181018043641 58 31 2.0 5.0 0.00 0.06 0.00 72 1023.2
20181018043142 58 31 1.0 5.0 0.00 0.06 0.00 73 1023.2
20181018040642 57 23 1.0 5.0 0.00 0.07 0.00 79 1022.9
20181018040142 58 349 2.0 6.0 0.00 0.07 0.00 80 1022.8
20181018033642 58 318 2.0 5.0 0.00 0.07 0.07 82 1022.6
20181018033141 58 318 1.0 9.0 0.00 0.07 0.07 82 1022.5
20181018030642 57 326 0.0 3.0 0.00 0.07 0.07 86 1022.1
20181018030142 56 327 0.0 0.0 0.00 0.07 0.07 88 1022.1
20181018023642 55 327 0.0 0.0 0.00 0.07 0.07 92 1021.8
20181018023141 55 327 0.0 0.0 0.00 0.07 0.07 92 1021.7
20181018020642 55 327 0.0 0.0 0.00 0.08 0.07 91 1021.5
20181018020142 55 327 0.0 0.0 0.00 0.08 0.07 91 1021.3
20181018013642 55 327 0.0 0.0 0.00 0.08 0.07 90 1021.0
20181018013142 55 327 0.0 0.0 0.00 0.08 0.07 90 1020.8
20181018010642 56 327 0.0 0.0 0.00 0.08 0.07 88 1020.5
20181018010142 56 327 0.0 0.0 0.00 0.08 0.07 88 1020.5
20181018003641 56 327 0.0 0.0 0.00 0.08 0.07 88 1020.4
20181018003141 56 327 0.0 0.0 0.00 0.08 0.07 87 1020.4
20181018000642 58 327 0.0 0.0 0.00 0.08 0.07 86 1020.1
20181018000142 58 327 0.0 0.0 0.00 0.08 0.07 85 1020.1
20181017233642 58 327 0.0 0.0 0.00 0.08 0.07 82 1019.8
20181017233142 58 327 0.0 0.0 0.00 0.08 0.07 83 1019.7
20181017230642 58 327 0.0 0.0 0.00 0.08 0.07 81 1019.3
20181017230142 59 327 0.0 0.0 0.00 0.08 0.07 80 1019.2
20181017223642 60 327 0.0 0.0 0.00 0.08 0.07 75 1018.7